Glenwood, MN

10:15 AM CDT on July 25, 2017 (GMT -0500)
Glenwood Municipal

Weather History for KGHW - May, 2013

Change the Weather History Date:

Wednesday, May 22, 2013

  Actual Average Record
Temperature  
Mean Temperature 48 °F -  
Max Temperature 53 °F 70 °F 87 °F (1980)
Min Temperature 44 °F 48 °F 31 °F (1963)
Degree Days  
Heating Degree Days 16    
Moisture  
Dew Point 46 °F    
Average Humidity 91    
Maximum Humidity 100    
Minimum Humidity 76    
Precipitation  
Precipitation 0.34 in - - ()
Sea Level Pressure  
Sea Level Pressure 29.87 in    
Wind  
Wind Speed 14 mph (NNE)    
Max Wind Speed 25 mph    
Max Gust Speed 37 mph    
Visibility 8 miles    
Events Rain    
Averages and records for this station are not official NWS values.
T = Trace of Precipitation, MM = Missing Value Source: NWS Daily Summary

Daily Weather History Graph

Daily Weather History Graph

Search for Another Location

Airport or City:

Trip Planner

Search our weather history database for the weather conditions in past years. The results will help you decide how hot, cold, wet, or windy it might be!

Date:

Astronomy

May. 22, 2013 Rise Set
Actual Time 5:42 AM CDT 8:53 PM CDT
Civil Twilight 5:06 AM CDT 9:29 PM CDT
Nautical Twilight 4:20 AM CDT 10:16 PM CDT
Astronomical Twilight 3:23 AM CDT 11:13 PM CDT
Moon 6:10 PM CDT (5/22) 3:56 AM CDT (5/22)
Length of Visible Light 16h 22m
Length of Day
15h 11m
Waxing Gibbous, 91% of the Moon is Illuminated
May 22
Waxing Gibbous
May 24
Full
May 31
Last Quarter
Jun 8
New
Jun 16
First Quarter

Hourly Weather History & Observations

Time (CDT) Temp. Windchill Dew Point Humidity Pressure Visibility Wind Dir Wind Speed Gust Speed Precip Events Conditions
12:13 AM 46.4 °F 41.1 °F 46.4 °F 100% 29.77 in 3.0 mi NE 11.5 mph 16.1 mph N/A Rain Rain
12:33 AM 46.4 °F 41.9 °F 46.4 °F 100% 29.77 in 5.0 mi NE 9.2 mph - 0.01 in   Drizzle
12:53 AM 46.4 °F 41.5 °F 46.4 °F 100% 29.77 in 2.5 mi NE 10.4 mph - 0.01 in   Drizzle
1:13 AM 46.4 °F 41.9 °F 46.4 °F 100% 29.77 in 3.0 mi NE 9.2 mph - N/A   Drizzle
1:33 AM 46.4 °F 41.5 °F 46.4 °F 100% 29.76 in 5.0 mi NNE 10.4 mph - 0.01 in   Light Drizzle
1:53 AM 46.4 °F 40.7 °F 44.6 °F 93% 29.76 in 10.0 mi NNE 12.7 mph - 0.01 in   Drizzle
2:13 AM 46.4 °F 40.7 °F 44.6 °F 93% 29.76 in 10.0 mi NNE 12.7 mph - N/A   Drizzle
2:33 AM 46.4 °F 40.7 °F 44.6 °F 93% 29.76 in 10.0 mi NNE 12.7 mph - N/A   Drizzle
2:53 AM 46.4 °F 40.4 °F 44.6 °F 93% 29.76 in 10.0 mi NNE 13.8 mph 17.3 mph 0.01 in   Drizzle
3:13 AM 46.4 °F 41.1 °F 44.6 °F 93% 29.76 in 10.0 mi NNE 11.5 mph - N/A   Drizzle
3:33 AM 46.4 °F 40.7 °F 44.6 °F 93% 29.76 in 10.0 mi NNE 12.7 mph - 0.01 in Rain Rain
3:53 AM 46.4 °F 41.1 °F 44.6 °F 93% 29.76 in 7.0 mi NNE 11.5 mph - 0.02 in Rain Rain
4:13 AM 46.4 °F 41.1 °F 44.6 °F 93% 29.77 in 7.0 mi NNE 11.5 mph 19.6 mph 0.01 in   Drizzle
4:34 AM 44.6 °F 37.8 °F 44.6 °F 100% 29.77 in 10.0 mi NNE 15.0 mph 21.9 mph 0.03 in Rain Rain
4:53 AM 44.6 °F 37.8 °F 44.6 °F 100% 29.77 in 7.0 mi NNE 15.0 mph 18.4 mph 0.03 in   Drizzle
5:13 AM 44.6 °F 38.1 °F 44.6 °F 100% 29.77 in 7.0 mi NNE 13.8 mph 19.6 mph N/A Rain Rain
5:34 AM 44.6 °F 39.2 °F 44.6 °F 100% 29.77 in 10.0 mi North 10.4 mph 16.1 mph 0.01 in   Drizzle
5:53 AM 44.6 °F 38.4 °F 44.6 °F 100% 29.77 in 7.0 mi NNE 12.7 mph - 0.02 in   Drizzle
6:13 AM 44.6 °F 38.1 °F 44.6 °F 100% 29.78 in 10.0 mi NNE 13.8 mph 19.6 mph 0.01 in   Drizzle
6:34 AM 44.6 °F 36.9 °F 44.6 °F 100% 29.78 in 7.0 mi NNE 18.4 mph 21.9 mph 0.02 in Rain Light Rain
6:53 AM 44.6 °F 38.8 °F 44.6 °F 100% 29.77 in 5.0 mi NNE 11.5 mph - 0.03 in Rain Rain
7:13 AM 44.6 °F 38.1 °F 44.6 °F 100% 29.78 in 5.0 mi NNE 13.8 mph 18.4 mph 0.01 in Rain Rain
7:34 AM 44.6 °F 37.8 °F 44.6 °F 100% 29.78 in 5.0 mi NNE 15.0 mph - 0.02 in Rain Rain
7:53 AM 46.4 °F 39.8 °F 44.6 °F 93% 29.78 in 5.0 mi NNE 16.1 mph - 0.02 in Rain Light Rain
8:13 AM 46.4 °F 40.1 °F 44.6 °F 93% 29.78 in 7.0 mi NNE 15.0 mph - N/A   Light Drizzle
8:33 AM 46.4 °F 39.5 °F 44.6 °F 93% 29.79 in 5.0 mi NNE 17.3 mph 21.9 mph N/A   Light Drizzle
8:53 AM 46.4 °F 39.5 °F 44.6 °F 93% 29.80 in 3.0 mi NNE 17.3 mph - N/A Rain Rain
9:13 AM 46.4 °F 39.8 °F 44.6 °F 93% 29.80 in 2.5 mi NNE 16.1 mph - 0.02 in Rain Light Rain
9:33 AM 46.4 °F 40.1 °F 44.6 °F 93% 29.80 in 3.0 mi NNE 15.0 mph - 0.03 in Rain Light Rain
9:53 AM 46.4 °F 40.1 °F 44.6 °F 93% 29.80 in 4.0 mi NNE 15.0 mph 23.0 mph 0.03 in Rain Rain
10:13 AM 46.4 °F 39.8 °F 44.6 °F 93% 29.81 in 4.0 mi NNE 16.1 mph 25.3 mph N/A Rain Light Rain
10:33 AM 46.4 °F 38.7 °F 44.6 °F 93% 29.81 in 7.0 mi NE 20.7 mph 25.3 mph 0.01 in Rain Light Rain
10:53 AM 46.4 °F 38.7 °F 44.6 °F 93% 29.81 in 7.0 mi NE 20.7 mph 26.5 mph 0.01 in   Drizzle
11:13 AM 46.4 °F 39.2 °F 46.4 °F 100% 29.82 in 10.0 mi NNE 18.4 mph - 0.01 in Rain Light Rain
11:33 AM 48.2 °F - 46.4 °F 93% 29.83 in 5.0 mi NE 21.9 mph - 0.03 in Rain Rain
11:53 AM 48.2 °F - 46.4 °F 93% 29.83 in 7.0 mi NE 19.6 mph 28.8 mph 0.04 in Rain Light Rain
12:13 PM 48.2 °F - 46.4 °F 93% 29.84 in 10.0 mi NE 21.9 mph 26.5 mph 0.01 in Rain Light Rain
12:33 PM 50.0 °F - 46.4 °F 87% 29.84 in 10.0 mi NNE 18.4 mph 24.2 mph 0.02 in Rain Light Rain
12:53 PM 50.0 °F - 46.4 °F 87% 29.85 in 7.0 mi NE 20.7 mph 26.5 mph 0.02 in   Light Drizzle
1:13 PM 50.0 °F - 46.4 °F 87% 29.85 in 7.0 mi NE 23.0 mph - N/A   Drizzle
1:33 PM 50.0 °F - 46.4 °F 87% 29.86 in 10.0 mi NNE 20.7 mph - 0.01 in Rain Light Rain
1:53 PM 50.0 °F - 48.2 °F 94% 29.87 in 7.0 mi NNE 19.6 mph 26.5 mph 0.02 in Rain Rain
2:13 PM 50.0 °F - 46.4 °F 87% 29.87 in 10.0 mi NNE 23.0 mph 26.5 mph 0.01 in Rain Light Rain
2:33 PM 50.0 °F - 48.2 °F 94% 29.88 in 10.0 mi NNE 20.7 mph - 0.03 in Rain Light Rain
2:53 PM 51.8 °F - 48.2 °F 88% 29.89 in 10.0 mi NNE 19.6 mph 26.5 mph 0.04 in Rain Light Rain
3:13 PM 51.8 °F - 48.2 °F 88% 29.89 in 10.0 mi NE 24.2 mph 27.6 mph 0.01 in   Drizzle
3:33 PM 51.8 °F - 50.0 °F 94% 29.90 in 7.0 mi NE 20.7 mph 26.5 mph 0.02 in Rain Rain
3:53 PM 51.8 °F - 48.2 °F 88% 29.90 in 10.0 mi NNE 21.9 mph 25.3 mph 0.02 in Rain Light Rain
4:14 PM 51.8 °F - 48.2 °F 88% 29.90 in 10.0 mi NE 23.0 mph 27.6 mph N/A   Light Drizzle
4:33 PM 51.8 °F - 48.2 °F 88% 29.91 in 10.0 mi NE 25.3 mph 29.9 mph N/A   Light Drizzle
4:53 PM 51.8 °F - 48.2 °F 88% 29.92 in 10.0 mi NE 25.3 mph 36.8 mph 0.01 in   Drizzle
5:14 PM 51.8 °F - 48.2 °F 88% 29.93 in 10.0 mi ENE 20.7 mph 28.8 mph N/A Rain Light Rain
5:33 PM 53.6 °F - 48.2 °F 82% 29.94 in 10.0 mi NE 19.6 mph - N/A   Light Drizzle
5:53 PM 53.6 °F - 48.2 °F 82% 29.94 in 10.0 mi NE 19.6 mph 26.5 mph N/A   Mostly Cloudy
6:14 PM 53.6 °F - 48.2 °F 82% 29.94 in 10.0 mi NE 17.3 mph - N/A   Mostly Cloudy
6:33 PM 53.6 °F - 48.2 °F 82% 29.95 in 10.0 mi NE 16.1 mph 19.6 mph N/A   Overcast
6:53 PM 53.6 °F - 48.2 °F 82% 29.96 in 10.0 mi ENE 9.2 mph 19.6 mph N/A   Overcast
7:14 PM 53.6 °F - 48.2 °F 82% 29.97 in 10.0 mi ENE 9.2 mph - N/A   Overcast
7:33 PM 53.6 °F - 48.2 °F 82% 29.98 in 10.0 mi NE 13.8 mph - N/A   Overcast
7:53 PM 53.6 °F - 48.2 °F 82% 29.98 in 10.0 mi NE 12.7 mph - N/A   Overcast
8:13 PM 53.6 °F - 46.4 °F 77% 29.99 in 10.0 mi NE 12.7 mph - N/A   Scattered Clouds
8:33 PM 51.8 °F - 44.6 °F 76% 30.00 in 10.0 mi NE 13.8 mph - N/A   Clear
8:53 PM 50.0 °F - 44.6 °F 82% 30.01 in 10.0 mi NE 10.4 mph - N/A   Clear
9:13 PM 48.2 °F - 44.6 °F 87% 30.02 in 10.0 mi NE 6.9 mph - N/A   Clear
9:33 PM 48.2 °F - 44.6 °F 87% 30.03 in 10.0 mi NNE 9.2 mph - N/A   Clear
9:53 PM 46.4 °F 42.4 °F 44.6 °F 93% 30.03 in 10.0 mi NNE 8.1 mph - N/A   Clear
10:13 PM 46.4 °F 42.9 °F 42.8 °F 87% 30.04 in 10.0 mi NNE 6.9 mph - N/A   Clear
10:33 PM 46.4 °F 42.9 °F 42.8 °F 87% 30.05 in 10.0 mi North 6.9 mph - N/A   Clear
10:53 PM 46.4 °F 42.9 °F 42.8 °F 87% 30.06 in 10.0 mi North 6.9 mph - N/A   Clear
11:13 PM 46.4 °F 43.5 °F 42.8 °F 87% 30.06 in 10.0 mi North 5.8 mph - N/A   Clear
11:33 PM 46.4 °F 43.5 °F 42.8 °F 87% 30.06 in 10.0 mi North 5.8 mph - N/A   Clear
11:53 PM 46.4 °F 43.5 °F 42.8 °F 87% 30.07 in 10.0 mi North 5.8 mph - N/A   Clear